Regional Weather Roundup
Issued by NWS Little Rock, AR

Home | Current Version | Previous Version | Text Only | Print | Product List | Glossary Off
Versions: 1 2 3 4 5 6 7 8 9 10 11 12 13 14 15 16 17 18 19 20 21 22 23 24 25 26 27 28 29 30 31 32 33 34 35 36 37 38 39 40 41 42 43 44 45 46 47 48

000
ASUS44 KLZK 211205
RWRLZK

WEATHER ROUNDUP FOR ARKANSAS
NATIONAL WEATHER SERVICE LITTLE ROCK AR
700 AM CDT THU MAY 21 2015

NOTE: "FAIR" INDICATES FEW OR NO CLOUDS BELOW 12,000 FEET WITH NO
SIGNIFICANT WEATHER AND/OR OBSTRUCTIONS TO VISIBILITY.

ARZ001-003-010-029-211300-
NORTHWEST ARKANSAS

CITY           SKY/WX    TMP DP  RH WIND       PRES   REMARKS
FAYETTEVILLE   PTCLDY    47  46  97 N7        30.22R
6HR MIN TEMP:  47; 6HR MAX TEMP:  52;

FORT SMITH     MOCLDY    57  47  69 NE12      30.19R
6HR MIN TEMP:  57; 6HR MAX TEMP:  60;

HARRISON       CLOUDY    48  43  82 N9        30.21R
6HR MIN TEMP:  48; 6HR MAX TEMP:  51;

BENTONVILLE    CLOUDY    48  43  81 NE13      30.23R
ROGERS         CLOUDY    47  44  90 N9        30.23S
6HR MIN TEMP:  46; 6HR MAX TEMP:  49; 6HR PCP:  0.01;

SILOAM SPGS    CLOUDY    46  41  81 N10       30.23R
6HR MIN TEMP:  46; 6HR MAX TEMP:  52;

HIGHFILL       CLOUDY    48  45  89 N9        30.22R
6HR MIN TEMP:  47; 6HR MAX TEMP:  52;

SPRINGDALE     CLOUDY    48  45  87 NE14      30.23R
$$

ARZ004-005-016-211300-
NORTH CENTRAL ARKANSAS

CITY           SKY/WX    TMP DP  RH WIND       PRES   REMARKS
BATESVILLE     CLOUDY    52  46  82 NW3       30.20R
6HR MIN TEMP:  52; 6HR MAX TEMP:  57;

FLIPPIN        PTSUNNY   52  43  71 N8        30.19R
6HR MIN TEMP:  52; 6HR MAX TEMP:  55;

MTN HOME       CLOUDY    50  44  80 VRB3      30.20R
6HR MIN TEMP:  50; 6HR MAX TEMP:  53;

$$

ARZ040-041-211300-
WEST CENTRAL ARKANSAS

CITY           SKY/WX    TMP DP  RH WIND       PRES   REMARKS
MENA           CLOUDY    59  54  82 NE6       30.16R
MOUNT IDA      CLOUDY    59  52  77 VRB5      30.13S
6HR MIN TEMP:  59; 6HR MAX TEMP:  62;

$$

ARZ009-017-025-026-028-211300-
NORTHEAST ARKANSAS

CITY           SKY/WX    TMP DP  RH WIND       PRES   REMARKS
JONESBORO      CLOUDY    50  47  89 VRB6      30.18R
6HR MIN TEMP:  50; 6HR MAX TEMP:  55;

NEWPORT        CLOUDY    52  48  86 N12       30.21R
6HR MIN TEMP:  51; 6HR MAX TEMP:  57; 6HR PCP: TRACE;

WALNUT RIDGE   CLOUDY    52  45  76 N12       30.18R
6HR MIN TEMP:  50; 6HR MAX TEMP:  54;

BLYTHEVILLE    CLOUDY    51  47  86 N18       30.18R
6HR MIN TEMP:  51; 6HR MAX TEMP:  53;

$$

ARZ022-023-033-042-044-211300-
CENTRAL ARKANSAS

CITY           SKY/WX    TMP DP  RH WIND       PRES   REMARKS
LITTLE ROCK    CLOUDY    59  48  67 N12       30.16R
6HR MIN TEMP:  59; 6HR MAX TEMP:  65;

N LITTLE ROCK    N/A     56  52  85 N12G18    30.16R
6HR MIN TEMP:  56; 6HR MAX TEMP:  62;

JACKSONVILLE   CLOUDY    59  52  77 N8        30.16S
6HR MIN TEMP:  59; 6HR MAX TEMP:  65;

SEARCY         MOSUNNY   54  47  77 N14       30.20R
6HR MIN TEMP:  54; 6HR MAX TEMP:  63; 6HR PCP: TRACE;

HOT SPRINGS    CLOUDY    60  52  74 N5        30.15R
6HR MIN TEMP:  60; 6HR MAX TEMP:  65;

RUSSELLVILLE   CLOUDY    56  46  69 N10       30.19R
6HR MIN TEMP:  56; 6HR MAX TEMP:  63;

CLINTON        CLOUDY    54  46  76 NW3       30.21R
$$

ARZ036-211300-
EAST ARKANSAS

CITY           SKY/WX    TMP DP  RH WIND       PRES   REMARKS
WEST MEMPHIS   CLOUDY    53  50  89 N13       30.15R
6HR MIN TEMP:  53; 6HR MAX TEMP:  60;

$$

ARZ050-053-066-070-073-211300-
SOUTHWEST ARKANSAS

CITY           SKY/WX    TMP DP  RH WIND       PRES   REMARKS
ARKADELPHIA    CLOUDY    62  57  83 NE13      30.12S
6HR MIN TEMP:  62; 6HR MAX TEMP:  67; 6HR PCP:  0.01;

CAMDEN         RAIN      61  57  88 CALM      30.10R
TEXARKANA      RAIN      59  59 100 NE10      30.09F FOG
6HR MIN TEMP:  59; 6HR MAX TEMP:  68; 6HR PCP:  0.74;

EL DORADO      TSTM      63  61  93 N6        30.09S FOG
6HR MIN TEMP:  63; 6HR MAX TEMP:  70; 6HR PCP:  0.03;

DE QUEEN       LGT RAIN  59  55  87 E6        30.12R
6HR MIN TEMP:  58; 6HR MAX TEMP:  63; 6HR PCP: TRACE;

$$

ARZ056-057-069-211300-
SOUTHEAST ARKANSAS

CITY           SKY/WX    TMP DP  RH WIND       PRES   REMARKS
PINE BLUFF     CLOUDY    58  56  93 NE15      30.14R
6HR MIN TEMP:  58; 6HR MAX TEMP:  67; 6HR PCP: TRACE;

STUTTGART      CLOUDY    55  52  88 N17       30.15S
6HR MIN TEMP:  55; 6HR MAX TEMP:  66;

MONTICELLO     CLOUDY    63  61  93 N8        30.11R
6HR MIN TEMP:  63; 6HR MAX TEMP:  71; 6HR PCP: TRACE;


$$




USA.gov is the U.S. government's official web portal to all federal, state and local government web resources and services.